CW3508 Weather Reports


Display with metric or nautical units.
time (UTC)temp
F
wind
direction
speed
MPH
gust
MPH
rain 1hr
in
rain 24hr
in
rain mn
in
humidity
%
barometer
mb
20260902052013 79 311 0.0 0.0 0.00 0.00 0.00 85 1014.1
20260902051034 79 311 0.0 0.0 0.00 0.00 0.00 85 1014.1
20260902050542 79 311 0.0 0.0 0.00 0.00 0.00 85 1014.1
20260902050039 79 311 0.0 0.0 0.00 0.00 0.00 85 1014.1
20260902045526 80 311 0.0 0.0 0.00 0.00 0.00 84 1014.3
20260902045028 80 311 0.0 0.0 0.00 0.00 0.00 84 1014.3
20260902044533 80 311 0.0 0.0 0.00 0.00 0.00 84 1014.3
20260902044018 80 311 0.0 0.0 0.00 0.00 0.00 84 1014.3
20260902043530 80 311 0.0 0.0 0.00 0.00 0.00 84 1014.3
20260902043058 80 311 0.0 0.0 0.00 0.00 0.00 83 1014.3
20260902042542 80 311 0.0 0.0 0.00 0.00 0.00 83 1014.4
20260902042032 80 311 0.0 0.0 0.00 0.00 0.00 83 1014.4
20260902041516 80 311 0.0 0.0 0.00 0.00 0.00 83 1014.4
20260902041041 80 311 0.0 0.0 0.00 0.00 0.00 83 1014.5
20260902040532 80 311 0.0 0.0 0.00 0.00 0.00 83 1014.5
20260902040055 81 311 0.0 0.0 0.00 0.00 0.00 83 1014.5
20260902035544 81 311 0.0 0.0 0.00 0.00 0.00 82 1014.4
20260902035015 81 311 0.0 0.0 0.00 0.00 0.00 82 1014.4
20260902034532 81 311 0.0 0.0 0.00 0.00 0.00 82 1014.4
20260902034034 81 311 0.0 0.0 0.00 0.00 0.00 81 1014.5
20260902033521 81 311 0.0 0.0 0.00 0.00 0.00 81 1014.5
20260902033037 81 311 0.0 0.0 0.00 0.00 0.00 81 1014.5
20260902032532 81 311 0.0 0.0 0.00 0.00 0.00 81 1014.4
20260902032015 82 311 0.0 0.0 0.00 0.00 0.00 80 1014.4
20260902031029 82 311 0.0 0.0 0.00 0.00 0.00 80 1014.5
20260902030536 82 311 0.0 0.0 0.00 0.00 0.00 79 1014.5
20260902030045 82 311 0.0 0.0 0.00 0.00 0.00 79 1014.5
20260902025521 82 311 0.0 0.0 0.00 0.00 0.00 79 1014.4
20260902025025 82 311 0.0 0.0 0.00 0.00 0.00 79 1014.4
20260902024533 82 311 0.0 0.0 0.00 0.00 0.00 78 1014.4
20260902024022 82 311 0.0 0.0 0.00 0.00 0.00 78 1014.4
20260902023527 83 311 0.0 0.0 0.00 0.00 0.00 78 1014.4
20260902015024 84 311 0.0 0.0 0.00 0.00 0.00 75 1013.9
20260902014522 84 311 0.0 0.0 0.00 0.00 0.00 74 1013.9
20260902014035 85 311 0.0 0.0 0.00 0.00 0.00 73 1013.6
20260902013527 85 311 0.0 0.0 0.00 0.00 0.00 73 1013.6
20260902013023 86 311 0.0 0.0 0.00 0.00 0.00 73 1013.6
20260902012526 86 311 0.0 0.0 0.00 0.00 0.00 71 1013.5
20260902001034 89 311 0.0 0.0 0.00 0.00 0.00 66 1013.3
20260902000536 89 311 0.0 0.0 0.00 0.00 0.00 65 1013.3
20260902000022 89 311 0.0 0.0 0.00 0.00 0.00 65 1013.3
20260901235542 89 311 0.0 0.0 0.00 0.00 0.00 65 1013.4
20260901235022 89 311 0.0 0.0 0.00 0.00 0.00 64 1013.4
20260901234517 89 311 0.0 0.0 0.00 0.00 0.00 64 1013.4
20260901234032 90 311 0.0 0.0 0.00 0.00 0.00 65 1013.4
20260901233534 90 311 0.0 0.0 0.00 0.00 0.00 63 1013.4
20260901233038 90 311 0.0 0.0 0.00 0.00 0.00 63 1013.4
20260901232530 90 311 0.0 0.0 0.00 0.00 0.00 62 1013.4
20260901232027 90 311 0.0 0.0 0.00 0.00 0.00 63 1013.4
20260901231529 90 311 0.0 0.0 0.00 0.00 0.00 62 1013.4
20260901230528 91 311 0.0 0.0 0.00 0.00 0.00 62 1013.4
20260901230100 91 311 0.0 0.0 0.00 0.00 0.00 62 1013.4
20260901225542 91 311 0.0 1.0 0.00 0.00 0.00 60 1013.4
20260901225033 91 311 0.0 1.0 0.00 0.00 0.00 61 1013.4
20260901224549 91 311 0.0 0.0 0.00 0.00 0.00 60 1013.4
20260901224026 92 311 0.0 0.0 0.00 0.00 0.00 60 1013.3
20260901223522 92 311 0.0 0.0 0.00 0.00 0.00 59 1013.3
20260901223029 92 240 0.0 3.0 0.00 0.00 0.00 60 1013.3
20260901222527 92 240 0.0 3.0 0.00 0.00 0.00 58 1013.2
20260901215519 93 313 0.0 0.0 0.00 0.00 0.00 58 1013.3
20260901215024 93 316 0.0 0.0 0.00 0.00 0.00 56 1013.3
20260901214040 93 316 0.0 0.0 0.00 0.00 0.00 56 1013.4
20260901213550 93 234 0.0 0.0 0.00 0.00 0.00 57 1013.4
20260901213029 93 182 0.0 1.0 0.00 0.00 0.00 56 1013.4
20260901212525 94 242 0.0 0.0 0.00 0.00 0.00 56 1013.3
20260901212024 94 192 0.0 2.0 0.00 0.00 0.00 56 1013.3
20260901211522 94 203 0.0 1.0 0.00 0.00 0.00 55 1013.3
20260901211019 94 211 0.0 0.0 0.00 0.00 0.00 55 1013.5
20260901210529 94 295 0.0 0.0 0.00 0.00 0.00 55 1013.5
20260901205541 94 307 0.0 0.0 0.00 0.00 0.00 52 1013.4
20260901205034 94 309 0.0 5.0 0.00 0.00 0.00 55 1013.4
20260901204531 94 264 0.0 5.0 0.00 0.00 0.00 52 1013.4
20260901204028 95 290 0.0 0.0 0.00 0.00 0.00 53 1013.9
20260901203520 95 286 0.0 2.0 0.00 0.00 0.00 54 1013.9
20260901203029 95 286 0.0 2.0 0.00 0.00 0.00 52 1013.9
20260901202538 95 286 0.0 4.0 0.00 0.00 0.00 52 1014.0
20260901202022 95 229 0.0 4.0 0.00 0.00 0.00 53 1014.0
20260901201519 96 231 0.0 0.0 0.00 0.00 0.00 56 1014.0
20260901201014 96 231 0.0 0.0 0.00 0.00 0.00 55 1014.0
20260901200533 96 232 0.0 1.0 0.00 0.00 0.00 53 1014.0
20260901200029 96 322 0.0 1.0 0.00 0.00 0.00 52 1014.0
20260901195528 96 247 0.0 0.0 0.00 0.00 0.00 54 1014.4
20260901195019 96 222 0.0 0.0 0.00 0.00 0.00 53 1014.4
20260901194536 96 302 0.0 2.0 0.00 0.00 0.00 53 1014.4
20260901194045 96 302 0.0 4.0 0.00 0.00 0.00 53 1014.4
20260901193552 97 170 0.0 4.0 0.00 0.00 0.00 51 1014.4
20260901193057 97 198 0.0 1.0 0.00 0.00 0.00 51 1014.4
20260901192531 97 321 0.0 3.0 0.00 0.00 0.00 50 1014.5
20260901192050 97 321 1.0 3.0 0.00 0.00 0.00 51 1014.5
20260901191525 97 320 0.0 2.0 0.00 0.00 0.00 52 1014.5
20260901191023 97 320 0.0 2.0 0.00 0.00 0.00 52 1014.6
20260901190527 97 321 0.0 2.0 0.00 0.00 0.00 50 1014.6
20260901190018 97 190 0.0 0.0 0.00 0.00 0.00 54 1014.6
20260901185538 97 182 0.0 0.0 0.00 0.00 0.00 50 1015.0
20260901185041 98 182 0.0 1.0 0.00 0.00 0.00 48 1015.0
20260901184520 98 158 0.0 3.0 0.00 0.00 0.00 49 1015.0
20260901184030 99 191 0.0 2.0 0.00 0.00 0.00 50 1015.0
20260901183544 99 240 0.0 1.0 0.00 0.00 0.00 51 1015.0
20260901183041 99 331 0.0 1.0 0.00 0.00 0.00 50 1015.0
20260901182549 99 331 0.0 1.0 0.00 0.00 0.00 50 1015.1
20260901182057 99 331 0.0 1.0 0.00 0.00 0.00 51 1015.1
20260901181528 99 194 0.0 3.0 0.00 0.00 0.00 52 1015.1
20260901181036 99 193 0.0 3.0 0.00 0.00 0.00 47 1015.3
20260901180037 99 298 0.0 1.0 0.00 0.00 0.00 50 1015.3
20260901175521 99 163 0.0 1.0 0.00 0.00 0.00 54 1015.5
20260901175019 98 163 0.0 1.0 0.00 0.00 0.00 55 1015.5
20260901174536 98 163 0.0 4.0 0.00 0.00 0.00 56 1015.5
20260901174035 97 172 1.0 4.0 0.00 0.00 0.00 51 1015.5
20260901173526 97 180 0.0 2.0 0.00 0.00 0.00 52 1015.5
20260901173016 97 175 0.0 1.0 0.00 0.00 0.00 52 1015.5
20260901172534 97 169 0.0 0.0 0.00 0.00 0.00 54 1015.7
20260901172017 97 166 0.0 4.0 0.00 0.00 0.00 54 1015.7
20260901171518 97 165 1.0 4.0 0.00 0.00 0.00 53 1015.7
20260901171047 97 265 0.0 0.0 0.00 0.00 0.00 59 1016.0
20260901170536 96 250 0.0 1.0 0.00 0.00 0.00 56 1016.0
20260901170037 96 168 0.0 1.0 0.00 0.00 0.00 60 1016.0
20260901165527 96 168 0.0 2.0 0.00 0.00 0.00 58 1016.1
20260901165019 96 168 0.0 2.0 0.00 0.00 0.00 59 1016.1
20260901164521 95 304 0.0 1.0 0.00 0.00 0.00 59 1016.1
20260901164053 95 304 0.0 1.0 0.00 0.00 0.00 63 1016.1
20260901163544 94 246 0.0 4.0 0.00 0.00 0.00 60 1016.1
20260901163035 94 176 1.0 4.0 0.00 0.00 0.00 59 1016.1
20260901162515 94 155 0.0 0.0 0.00 0.00 0.00 66 1016.4
20260901162035 94 33 0.0 0.0 0.00 0.00 0.00 60 1016.4
20260901161515 93 32 0.0 0.0 0.00 0.00 0.00 63 1016.4
20260901161020 93 166 0.0 2.0 0.00 0.00 0.00 69 1016.4
20260901160017 91 166 0.0 0.0 0.00 0.00 0.00 69 1016.4
20260901155559 91 166 0.0 0.0 0.00 0.00 0.00 72 1016.6
20260901155056 90 166 0.0 0.0 0.00 0.00 0.00 72 1016.6
20260901154527 89 166 0.0 0.0 0.00 0.00 0.00 72 1016.6
20260901154036 88 155 0.0 0.0 0.00 0.00 0.00 72 1016.6
20260901153540 87 275 0.0 0.0 0.00 0.00 0.00 77 1016.6
20260901153024 86 178 0.0 0.0 0.00 0.00 0.00 74 1016.6
20260901152523 85 216 0.0 1.0 0.00 0.00 0.00 81 1016.6
20260901152022 84 206 0.0 1.0 0.00 0.00 0.00 81 1016.6
20260901151535 83 205 0.0 0.0 0.00 0.00 0.00 81 1016.6
20260901151028 83 308 0.0 0.0 0.00 0.00 0.00 84 1016.7
20260901150531 82 308 0.0 0.0 0.00 0.00 0.00 84 1016.7
20260901150038 82 308 0.0 0.0 0.00 0.00 0.00 85 1016.7
20260901145534 81 308 0.0 0.0 0.00 0.00 0.00 86 1016.6
20260901145036 81 308 0.0 0.0 0.00 0.00 0.00 86 1016.6
20260901144540 81 308 0.0 0.0 0.00 0.00 0.00 87 1016.6
20260901144023 80 308 0.0 0.0 0.00 0.00 0.00 89 1016.8
20260901143525 80 308 0.0 0.0 0.00 0.00 0.00 89 1016.8
20260901143033 80 308 0.0 0.0 0.00 0.00 0.00 92 1016.8
20260901142514 80 308 0.0 0.0 0.00 0.00 0.00 92 1016.7
20260901142036 79 308 0.0 0.0 0.00 0.00 0.00 92 1016.7
20260901141522 79 308 0.0 0.0 0.00 0.00 0.00 93 1016.7
20260901141059 78 308 0.0 0.0 0.00 0.00 0.00 93 1016.6
20260901140529 78 308 0.0 0.0 0.00 0.00 0.00 94 1016.6
20260901140035 78 308 0.0 0.0 0.00 0.00 0.00 94 1016.6
20260901135518 78 308 0.0 0.0 0.00 0.00 0.00 94 1016.6
20260901134536 77 308 0.0 0.0 0.00 0.00 0.00 95 1016.6
20260901134037 77 308 0.0 0.0 0.00 0.00 0.00 95 1016.7
20260901133540 76 308 0.0 0.0 0.00 0.00 0.00 95 1016.7
20260901133030 76 308 0.0 0.0 0.00 0.00 0.00 95 1016.7
20260901132536 76 308 0.0 0.0 0.00 0.00 0.00 95 1016.7
20260901132019 76 308 0.0 0.0 0.00 0.00 0.00 95 1016.7
20260901131518 76 308 0.0 0.0 0.00 0.00 0.00 95 1016.7
20260901131058 75 308 0.0 0.0 0.00 0.00 0.00 95 1016.7
20260901130536 75 308 0.0 0.0 0.00 0.00 0.00 95 1016.7
20260901130039 75 308 0.0 0.0 0.00 0.00 0.00 95 1016.7
20260901125528 75 308 0.0 0.0 0.00 0.00 0.00 95 1016.6
20260901125034 75 308 0.0 0.0 0.00 0.00 0.00 95 1016.6
20260901124541 75 308 0.0 0.0 0.00 0.00 0.00 95 1016.6
20260901124027 75 308 0.0 0.0 0.00 0.00 0.00 95 1016.6
20260901123526 74 308 0.0 0.0 0.00 0.00 0.00 95 1016.6
20260901123029 74 308 0.0 0.0 0.00 0.00 0.00 95 1016.6
20260901122532 74 308 0.0 0.0 0.00 0.00 0.00 95 1016.4
20260901122057 74 308 0.0 0.0 0.00 0.00 0.00 95 1016.4
20260901121554 74 308 0.0 0.0 0.00 0.00 0.00 95 1016.4
20260901121050 74 308 0.0 0.0 0.00 0.00 0.00 95 1016.1
20260901120522 74 308 0.0 0.0 0.00 0.00 0.00 95 1016.1
20260901120023 74 308 0.0 0.0 0.00 0.00 0.00 95 1016.1
20260901115527 74 308 0.0 0.0 0.00 0.00 0.00 94 1016.1
20260901115039 74 308 0.0 0.0 0.00 0.00 0.00 94 1016.1
20260901114539 74 308 0.0 0.0 0.00 0.00 0.00 94 1016.1
20260901114026 74 308 0.0 0.0 0.00 0.00 0.00 94 1015.7
20260901113533 74 308 0.0 0.0 0.00 0.00 0.00 94 1015.7
20260901113052 74 308 0.0 0.0 0.00 0.00 0.00 94 1015.7
20260901112529 74 308 0.0 0.0 0.00 0.00 0.00 94 1015.5
20260901112026 74 308 0.0 0.0 0.00 0.00 0.00 94 1015.5
20260901111522 74 308 0.0 0.0 0.00 0.00 0.00 94 1015.5
20260901111032 74 308 0.0 0.0 0.00 0.00 0.00 94 1015.5
20260901110533 74 308 0.0 0.0 0.00 0.00 0.00 94 1015.5
20260901110033 74 308 0.0 0.0 0.00 0.00 0.00 94 1015.5
20260901105522 74 308 0.0 0.0 0.00 0.00 0.00 94 1015.4
20260901105030 74 308 0.0 0.0 0.00 0.00 0.00 94 1015.4
20260901104520 74 308 0.0 0.0 0.00 0.00 0.00 94 1015.4
20260901104037 74 308 0.0 0.0 0.00 0.00 0.00 94 1015.3
20260901103518 74 308 0.0 0.0 0.00 0.00 0.00 94 1015.3
20260901103029 74 308 0.0 0.0 0.00 0.00 0.00 94 1015.3
20260901102525 75 308 0.0 0.0 0.00 0.00 0.00 94 1015.2
20260901102037 75 308 0.0 0.0 0.00 0.00 0.00 94 1015.2
20260901101522 75 308 0.0 0.0 0.00 0.00 0.00 94 1015.2
20260901101033 75 308 0.0 0.0 0.00 0.00 0.00 94 1015.2
20260901100526 75 308 0.0 0.0 0.00 0.00 0.00 94 1015.2
20260901100025 75 308 0.0 0.0 0.00 0.00 0.00 94 1015.2
20260901095522 75 308 0.0 0.0 0.00 0.00 0.00 94 1015.3
20260901095019 75 308 0.0 0.0 0.00 0.00 0.00 94 1015.3
20260901094528 75 308 0.0 0.0 0.00 0.00 0.00 94 1015.3
20260901094031 75 308 0.0 0.0 0.00 0.00 0.00 94 1015.0
20260901093033 75 308 0.0 0.0 0.00 0.00 0.00 94 1015.0
20260901092523 75 308 0.0 0.0 0.00 0.00 0.00 94 1015.0
20260901092030 75 308 0.0 0.0 0.00 0.00 0.00 93 1015.0
20260901091517 75 308 0.0 0.0 0.00 0.00 0.00 93 1015.0
20260901091023 76 308 0.0 0.0 0.00 0.00 0.00 93 1015.0
20260901090536 76 308 0.0 0.0 0.00 0.00 0.00 93 1015.0
20260901085529 76 308 0.0 0.0 0.00 0.00 0.00 94 1014.9
20260901085029 76 308 0.0 0.0 0.00 0.00 0.00 93 1014.9
20260901084529 76 308 0.0 0.0 0.00 0.00 0.00 93 1014.9
20260901084022 76 308 0.0 0.0 0.00 0.00 0.00 93 1014.9
20260901083525 76 308 0.0 0.0 0.00 0.00 0.00 93 1014.9
20260901083034 76 308 0.0 0.0 0.00 0.00 0.00 93 1014.9
20260901082521 76 308 0.0 0.0 0.00 0.00 0.00 93 1014.8
20260901082032 76 308 0.0 0.0 0.00 0.00 0.00 93 1014.8
20260901081541 76 308 0.0 0.0 0.00 0.00 0.00 93 1014.8
20260901081045 76 308 0.0 0.0 0.00 0.00 0.00 93 1014.6
20260901080533 76 308 0.0 0.0 0.00 0.00 0.00 92 1014.6
20260901080036 76 308 0.0 0.0 0.00 0.00 0.00 92 1014.6
20260901075538 76 308 0.0 0.0 0.00 0.00 0.00 92 1014.5
20260901075027 76 308 0.0 0.0 0.00 0.00 0.00 92 1014.5
20260901074529 76 308 0.0 0.0 0.00 0.00 0.00 92 1014.5
20260901074035 76 308 0.0 0.0 0.00 0.00 0.00 92 1014.5
20260901073537 76 308 0.0 0.0 0.00 0.00 0.00 92 1014.5
20260901073024 76 308 0.0 0.0 0.00 0.00 0.00 92 1014.5
20260901072526 76 308 0.0 0.0 0.00 0.00 0.00 92 1014.5
20260901072032 77 308 0.0 0.0 0.00 0.00 0.00 92 1014.5
20260901071519 77 308 0.0 0.0 0.00 0.00 0.00 91 1014.5
20260901071023 77 308 0.0 0.0 0.00 0.00 0.00 91 1014.5
20260901070554 77 308 0.0 0.0 0.00 0.00 0.00 91 1014.5
20260901070029 77 308 0.0 0.0 0.00 0.00 0.00 91 1014.5
20260901065520 77 308 0.0 0.0 0.00 0.00 0.00 91 1014.5
20260901065021 77 308 0.0 0.0 0.00 0.00 0.00 91 1014.5
20260901064520 77 308 0.0 0.0 0.00 0.00 0.00 91 1014.5
20260901064022 77 308 0.0 0.0 0.00 0.00 0.00 91 1014.7
20260901063518 77 308 0.0 0.0 0.00 0.00 0.00 91 1014.7
20260901063038 77 308 0.0 0.0 0.00 0.00 0.00 90 1014.7
20260901062533 77 308 0.0 0.0 0.00 0.00 0.00 90 1014.8
20260901062035 77 308 0.0 0.0 0.00 0.00 0.00 90 1014.8
20260901061539 77 308 0.0 0.0 0.00 0.00 0.00 90 1014.8
20260901061035 78 308 0.0 0.0 0.00 0.00 0.00 90 1014.9
20260901060523 78 308 0.0 0.0 0.00 0.00 0.00 90 1014.9
20260901060058 78 308 0.0 0.0 0.00 0.00 0.00 90 1014.9
20260901055544 78 308 0.0 0.0 0.00 0.00 0.00 89 1014.8
20260901055040 78 308 0.0 0.0 0.00 0.00 0.00 89 1014.8
20260901054519 78 308 0.0 0.0 0.00 0.00 0.00 89 1014.8
20260901054036 78 308 0.0 0.0 0.00 0.00 0.00 89 1014.9
20260901053533 78 308 0.0 0.0 0.00 0.00 0.00 89 1014.9
20260901053019 78 308 0.0 0.0 0.00 0.00 0.00 89 1014.9
20260901052527 78 308 0.0 0.0 0.00 0.00 0.00 88 1014.9